Location: Caltech
(34.1382°N, 118.1253°W)
Time: 20:18:15
(UTC-07:00)

COSMOS 2428 - Visible Passes

Search period start: 30 March 2015 00:00
Search period end: 09 April 2015 00:00
Orbit: 847 x 854 km, 71.0° (Epoch: 30 March)

Date Brightness Start Highest point End Pass type
(mag) Time Alt. Az. Time Alt. Az. Time Alt. Az.
30 Mar 4.0 20:33:00 10° NW 20:38:18 40° WSW 20:43:33 10° S visible
31 Mar 4.0 20:20:38 10° NW 20:25:56 41° WSW 20:31:11 10° S visible
01 Apr 4.1 20:08:16 10° NW 20:13:35 41° WSW 20:18:50 10° S visible
02 Apr 4.1 19:55:54 10° NW 20:01:12 41° WSW 20:06:28 10° S visible
03 Apr 4.2 19:43:31 10° NW 19:48:51 41° WSW 19:54:06 10° S visible
